• In Kazakhstan
  • List of Countries
  • For 7 days
  • Water Temperature
  • Satellite Maps
  • Weather Map
  • News
  • Weather Widgets
  • user-avatar
    Login

    Hourly Weather Kahramanmaras

    Today, 21 November, Tuesday

    Time Temperature Precipitation Wind Pressure Humidity
    00:00 +7°C° 0.1 mm 2 mps 655 mmHg 78%
    01:00 +7°C° 0.1 mm 2 mps 654 mmHg 80%
    02:00 +6°C° 0.1 mm 2 mps 654 mmHg 81%
    03:00 +6°C° 0.6 mm 2 mps 653 mmHg 83%
    04:00 +6°C° 0.6 mm 2 mps 653 mmHg 84%
    05:00 +5°C° 0.6 mm 3 mps 652 mmHg 86%
    06:00 +7°C° 3.8 mm 3 mps 652 mmHg 87%
    07:00 +6°C° 3.8 mm 4 mps 652 mmHg 88%
    08:00 +6°C° 3.8 mm 4 mps 652 mmHg 90%
    09:00 +6°C° 1.9 mm 4 mps 652 mmHg 83%
    10:00 +7°C° 1.9 mm 5 mps 653 mmHg 77%
    11:00 +7°C° 1.9 mm 5 mps 653 mmHg 71%
    12:00 +7°C° 0.6 mm 4 mps 653 mmHg 67%
    13:00 +7°C° 0.6 mm 4 mps 653 mmHg 64%
    14:00 +8°C° 0.6 mm 3 mps 654 mmHg 61%
    15:00 +7°C° 0.3 mm 3 mps 654 mmHg 63%
    16:00 +7°C° 0.3 mm 3 mps 654 mmHg 65%
    17:00 +5°C° 0.3 mm 3 mps 654 mmHg 66%
    18:00 +4°C° 0 mm 3 mps 654 mmHg 66%
    19:00 +4°C° 0 mm 3 mps 655 mmHg 65%
    20:00 +3°C° 0 mm 3 mps 655 mmHg 65%
    21:00 +3°C° 0 mm 3 mps 655 mmHg 65%
    22:00 +2°C° 0 mm 3 mps 655 mmHg 64%
    23:00 +2°C° 0 mm 3 mps 656 mmHg 64%

    Tomorrow, 22 November, Wednesday

    Time Temperature Precipitation Wind Pressure Humidity
    00:00 +1°C° 0 mm 3 mps 656 mmHg 65%
    01:00 +1°C° 0 mm 3 mps 656 mmHg 65%
    02:00 +1°C° 0 mm 3 mps 656 mmHg 66%
    03:00 0°C° 0 mm 3 mps 656 mmHg 66%
    04:00 0°C° 0 mm 3 mps 657 mmHg 66%
    05:00 -1°C° 0 mm 3 mps 657 mmHg 67%
    06:00 0°C° 0 mm 3 mps 657 mmHg 63%
    07:00 0°C° 0 mm 3 mps 658 mmHg 59%
    08:00 +1°C° 0 mm 3 mps 659 mmHg 55%
    09:00 +2°C° 0 mm 3 mps 659 mmHg 48%
    10:00 +3°C° 0 mm 4 mps 659 mmHg 41%
    11:00 +4°C° 0 mm 4 mps 660 mmHg 34%
    12:00 +4°C° 0 mm 4 mps 660 mmHg 32%
    13:00 +4°C° 0 mm 4 mps 660 mmHg 31%
    14:00 +4°C° 0 mm 4 mps 660 mmHg 29%
    15:00 +3°C° 0 mm 3 mps 660 mmHg 34%
    16:00 +2°C° 0 mm 3 mps 660 mmHg 38%
    17:00 +2°C° 0 mm 2 mps 660 mmHg 42%
    18:00 +1°C° 0 mm 2 mps 660 mmHg 44%
    19:00 +1°C° 0 mm 2 mps 660 mmHg 46%
    20:00 -1°C° 0 mm 2 mps 660 mmHg 48%
    21:00 -1°C° 0 mm 2 mps 660 mmHg 48%
    22:00 -1°C° 0 mm 2 mps 660 mmHg 48%
    23:00 -1°C° 0 mm 2 mps 660 mmHg 49%

    Day after tomorrow, 23 November, Thursday

    Time Temperature Precipitation Wind Pressure Humidity
    00:00 -1°C° 0 mm 2 mps 660 mmHg 48%
    01:00 -2°C° 0 mm 2 mps 660 mmHg 48%
    02:00 0°C° 0 mm 1 mps 660 mmHg 47%
    03:00 0°C° 0 mm 1 mps 660 mmHg 47%
    04:00 0°C° 0 mm 1 mps 660 mmHg 47%
    05:00 0°C° 0 mm 1 mps 660 mmHg 47%
    06:00 +1°C° 0 mm 1 mps 660 mmHg 45%
    07:00 +2°C° 0 mm 1 mps 661 mmHg 42%
    08:00 +3°C° 0 mm 1 mps 661 mmHg 40%
    09:00 +5°C° 0 mm 1 mps 661 mmHg 38%
    10:00 +5°C° 0 mm 2 mps 661 mmHg 36%
    11:00 +6°C° 0 mm 2 mps 662 mmHg 34%
    12:00 +7°C° 0 mm 2 mps 661 mmHg 35%
    13:00 +7°C° 0 mm 2 mps 661 mmHg 35%
    14:00 +7°C° 0 mm 2 mps 661 mmHg 36%
    15:00 +6°C° 0 mm 2 mps 660 mmHg 41%
    16:00 +5°C° 0 mm 2 mps 660 mmHg 46%
    17:00 +4°C° 0 mm 1 mps 659 mmHg 51%
    18:00 +4°C° 0 mm 1 mps 659 mmHg 52%
    19:00 +4°C° 0 mm 1 mps 659 mmHg 54%
    20:00 +3°C° 0 mm 1 mps 659 mmHg 55%
    21:00 +3°C° 0 mm 1 mps 659 mmHg 57%
    22:00 +3°C° 0 mm 1 mps 659 mmHg 59%
    23:00 +3°C° 0 mm 1 mps 659 mmHg 60%

    24 November, Friday

    Time Temperature Precipitation Wind Pressure Humidity
    00:00 +3°C° 0 mm 1 mps 659 mmHg 62%
    01:00 +3°C° 0 mm 1 mps 659 mmHg 64%
    02:00 +3°C° 0 mm 1 mps 659 mmHg 65%
    03:00 +3°C° 0 mm 1 mps 659 mmHg 66%
    04:00 +2°C° 0 mm 1 mps 659 mmHg 67%
    05:00 +2°C° 0 mm 1 mps 660 mmHg 69%
    06:00 +3°C° 0 mm 1 mps 660 mmHg 65%
    07:00 +3°C° 0 mm 2 mps 661 mmHg 62%
    08:00 +4°C° 0 mm 2 mps 662 mmHg 58%
    09:00 +5°C° 0 mm 2 mps 662 mmHg 52%
    10:00 +7°C° 0 mm 2 mps 663 mmHg 46%
    11:00 +8°C° 0 mm 2 mps 663 mmHg 40%
    12:00 +8°C° 0 mm 2 mps 663 mmHg 39%
    13:00 +10°C° 0 mm 1 mps 663 mmHg 37%
    14:00 +10°C° 0 mm 1 mps 663 mmHg 36%
    15:00 +9°C° 0 mm 1 mps 663 mmHg 40%
    16:00 +7°C° 0 mm 1 mps 662 mmHg 45%
    17:00 +6°C° 0 mm 1 mps 662 mmHg 49%
    18:00 +6°C° 0 mm 1 mps 662 mmHg 51%
    19:00 +5°C° 0 mm 1 mps 663 mmHg 52%
    20:00 +5°C° 0 mm 1 mps 663 mmHg 54%
    21:00 +4°C° 0 mm 1 mps 663 mmHg 54%
    22:00 +3°C° 0 mm 2 mps 663 mmHg 55%
    23:00 +3°C° 0 mm 2 mps 663 mmHg 56%

    25 November, Saturday

    Time Temperature Precipitation Wind Pressure Humidity
    00:00 +3°C° 0 mm 2 mps 663 mmHg 57%
    01:00 +2°C° 0 mm 2 mps 663 mmHg 57%
    02:00 +2°C° 0 mm 2 mps 663 mmHg 58%
    03:00 +2°C° 0 mm 2 mps 664 mmHg 58%
    04:00 +2°C° 0 mm 2 mps 664 mmHg 59%
    05:00 +1°C° 0 mm 2 mps 664 mmHg 59%
    06:00 +2°C° 0 mm 2 mps 664 mmHg 56%
    07:00 +3°C° 0 mm 2 mps 665 mmHg 54%
    08:00 +4°C° 0 mm 2 mps 665 mmHg 51%
    09:00 +5°C° 0 mm 2 mps 666 mmHg 46%
    10:00 +7°C° 0 mm 2 mps 666 mmHg 41%
    11:00 +8°C° 0 mm 2 mps 666 mmHg 37%
    12:00 +8°C° 0 mm 2 mps 666 mmHg 36%
    13:00 +8°C° 0 mm 2 mps 666 mmHg 35%
    14:00 +9°C° 0 mm 2 mps 666 mmHg 34%
    15:00 +8°C° 0 mm 1 mps 666 mmHg 37%
    16:00 +7°C° 0 mm 1 mps 665 mmHg 41%
    17:00 +6°C° 0 mm 1 mps 665 mmHg 45%
    18:00 +5°C° 0 mm 1 mps 665 mmHg 46%
    19:00 +4°C° 0 mm 2 mps 666 mmHg 46%
    20:00 +3°C° 0 mm 2 mps 666 mmHg 47%
    21:00 +3°C° 0 mm 2 mps 666 mmHg 48%
    22:00 +3°C° 0 mm 2 mps 666 mmHg 48%
    23:00 +2°C° 0 mm 2 mps 665 mmHg 48%

    26 November, Sunday

    Time Temperature Precipitation Wind Pressure Humidity
    00:00 +2°C° 0 mm 2 mps 665 mmHg 48%
    01:00 +2°C° 0 mm 2 mps 665 mmHg 48%
    02:00 +1°C° 0 mm 2 mps 665 mmHg 48%
    03:00 +1°C° 0 mm 2 mps 665 mmHg 47%
    04:00 +1°C° 0 mm 2 mps 665 mmHg 47%
    05:00 +1°C° 0 mm 2 mps 665 mmHg 46%
    06:00 +2°C° 0 mm 2 mps 665 mmHg 44%
    07:00 +2°C° 0 mm 2 mps 666 mmHg 41%
    08:00 +3°C° 0 mm 2 mps 666 mmHg 38%
    09:00 +5°C° 0 mm 2 mps 666 mmHg 33%
    10:00 +6°C° 0 mm 2 mps 666 mmHg 29%
    11:00 +8°C° 0 mm 2 mps 667 mmHg 24%
    12:00 +8°C° 0 mm 2 mps 666 mmHg 24%
    13:00 +10°C° 0 mm 1 mps 666 mmHg 24%
    14:00 +10°C° 0 mm 1 mps 666 mmHg 24%
    15:00 +8°C° 0 mm 1 mps 665 mmHg 27%
    16:00 +7°C° 0 mm 1 mps 665 mmHg 30%
    17:00 +5°C° 0 mm 1 mps 665 mmHg 33%
    18:00 +5°C° 0 mm 1 mps 665 mmHg 33%
    19:00 +4°C° 0 mm 1 mps 665 mmHg 33%
    20:00 +3°C° 0 mm 2 mps 665 mmHg 33%
    21:00 +3°C° 0 mm 2 mps 665 mmHg 33%
    22:00 +2°C° 0 mm 2 mps 664 mmHg 33%
    23:00 +2°C° 0 mm 2 mps 664 mmHg 32%
    Show more